Starlink 35346

operational
NORAD ID: 66180 Int'l Des: 2025-243 Owner: SPXS Country: US Constellation: starlink
LEOCIRCULAR

About Starlink 35346

Description loading...

Live Position

Loading 3D Globe...

Upcoming Passes

Altitude History

Altitude vs Time

uPlot chart will show altitude changes over time

Two-Line Element Set

1 66180C 25243C 25299.73381944 .00921250 00000+0 14957-2 0 2992
2 66180 53.1580 157.0831 0008972 275.4776 7.8381 16.01662691 10
Epoch: Oct 26, 2025 • Age: 120 hours

Current Status

Altitude 253.6 km
Velocity 7.76 km/s
Sub-Earth Point -41.12°S, 51.03°W
Launch Date Oct 26, 2025
Age 5 days
Type internet

Technical Details

Classification Payload
Mass 575.00 kg
Dry Mass 530.00 kg
Total Mass 575.00 kg
Length 0.30 m
Diameter 4.10 m
Span 29.00 m
Shape Box + pan
Manufacturer SPXS
Bus Type Starlink V2MO
Phase Status In Orbit
Owner/State SPXS/US

Large Constellations

Loading constellations...